Tracking 35237 objects as of 5-Sep-2026
HD Live streaming from Space Station
objects crossing your sky now

FLOCK 4X 42


FLOCK 4X 42 is no longer on orbit


NORAD ID: 51018
Int'l Code: 2022-002AL
Launch date: January 13, 2022
Source: United States (US)
Launch site: AIR FORCE EASTERN TEST RANGE (AFETR)
Decay date: 2024-08-21
Your satellite tracking list
Your tracking list is empty




NASA's NSSDC Master Catalog

Two Line Element Set (TLE):
1 51018U 22002AL  24235.25680784  .21304244  25610-5  30795-3 0  9993
2 51018  97.3437 315.0227 0011210 268.5287  91.4733 16.48288110145425
Source of the keplerian elements: AFSPC